Погода в Таймылыре

Россия / Республика Саха (Якутия)     72°36′35″N   121°54′50″E
темп.,
°C
ветер,
м/с
пор.,
м/с
влажн.,
%
обл.,
%
осадки,
мм/ч
давл.,
гПа
погр.,
м
27 февраля, сб
сб2700:00−33ю3391100 0.0 103243
03:00−32ю2290100 0.0 103124
06:00−31ю2288100 0.0 103122
09:00−31ююз1187100 0.0 103119
12:00−29юз0087100 0.0 103124
15:00−29с0093100 0.0 102929
18:00−29зсз0098100 0.1 102919
21:00−30с0099100 0.2 102819
28 февраля, вс
вс2800:00−30с019999 0.1 102819
03:00−33зсз0010097 0.1 102719
06:00−34ссв1110092 0.0 102719
09:00−34ссв1210058 0.0 102719
12:00−33ссв22960 0.0 102719
15:00−32ссв239423 0.0 102620
18:00−33св129567 0.0 102719
21:00−34св229473 0.0 102719
1 марта, пн
пн100:00−35св229477 0.0 102719
03:00−35св229377 0.0 102719
06:00−36св129687 0.0 102719
09:00−36св229675 0.0 102719
12:00−35св229319 0.0 102719
15:00−35св129332 0.0 102619
18:00−37всв119560 0.0 102719
21:00−38всв119666 0.0 102719
2 марта, вт
вт200:00−38в119862 0.0 102719
03:00−39вюв019971 0.0 102719
06:00−39ююв0110087 0.0 102819
09:00−39ююв0010079 0.0 102819
12:00−38ю009564 0.0 102819
15:00−37зюз009554 0.0 102919
18:00−39сз011004 0.0 103019
21:00−39с119922 0.0 103019
3 марта, ср
ср300:00−38ссз019872 0.0 103019
03:00−39ссз1110061 0.0 103019
06:00−38с129959 0.0 103018
09:00−38с129761 0.0 103019
12:00−35ссв119451 0.0 103019
15:00−34ссв229347 0.0 102919
18:00−35ссв229551 0.0 102919
21:00−35св229660 0.0 102819